Simultaneous Nadir Overpasses (SNOs) Predictions

Prediction of SNOs between FY3D and NOAA-19 Satellite Orbit:

Table of predicted SNOs for the next 14.0 days since TLE Epoch: 7/2/2022
Index Date (FY3D) Time (FY3D) Lat,Lon (FY3D) SZA (FY3D ) Date (NOAA-19) Time (NOAA-19) Lat,Lon (NOAA-19) SZA (NOAA-19 ) Distance(km) Time Diff (sec)
1 07/02/2022 05:00:21 -77.33, -90.94 125.16 07/02/2022 04:59:08 -77.33, -91.94 125.07 24.40 73
2 07/02/2022 05:51:10 77.43, 75.94 54.96 07/02/2022 05:50:08 77.46, 75.96 55.01 3.70 62
3 07/02/2022 06:41:55 -77.45,-116.83 125.02 07/02/2022 06:41:05 -77.44,-116.87 125.00 1.03 50
4 07/02/2022 07:32:42 77.46, 50.44 55.00 07/02/2022 07:32:08 77.46, 50.43 55.01 0.03 34
5 07/02/2022 08:23:27 -77.47,-142.33 124.97 07/02/2022 08:23:04 -77.48,-142.19 124.97 3.55 23
6 07/02/2022 09:14:14 77.48, 24.93 55.04 07/02/2022 09:14:08 77.45, 24.91 55.02 3.73 6
7 07/02/2022 10:04:58 -77.46,-167.65 124.99 07/02/2022 10:05:04 -77.47,-167.71 124.97 2.10 6
8 07/02/2022 10:55:45 77.47, -0.39 55.03 07/02/2022 10:56:07 77.48, -0.41 55.04 1.85 22
9 07/02/2022 11:46:30 -77.49, 166.84 124.95 07/02/2022 11:47:04 -77.47, 166.77 124.97 2.83 34
10 07/02/2022 12:37:17 77.50, -25.89 55.07 07/02/2022 12:38:07 77.48, -25.94 55.04 2.23 50
11 07/02/2022 13:28:02 -77.51, 141.34 124.91 07/02/2022 13:29:03 -77.50, 141.45 124.94 2.97 61
12 07/02/2022 14:18:52 77.65, -52.00 55.27 07/02/2022 14:20:03 77.63, -50.65 55.14 32.22 71



Historial Predications of SNOs between FY3D and NOAA-19
